Location: Ferchesar
(52.6477°N, 12.4298°E)
Time: 04:58:56
(UTC+01:00)

Vanguard 1 Rocket - Pass Details

Date: 09 December 2021
Orbit: 651 x 4224 km, 34.3° (Epoch: 15 January)

Event Time Altitude Azimuth Distance (km) Brightness Sun altitude
Exits shadow 01:31:38 18° 118° (ESE) 4,327 10.8 -55.7°
Drops below altitude 10° 01:36:21 10° 105° (ESE) 5,483 11.5 -55.2°
Sets 01:43:03 0° 94° (E) 7,173 12.3 -54.5°
